West Chester Brandywine Airpo, PA

11:01 PM EST on December 10, 2019 (GMT -0500)
West Chester Brandywine Airpo

Weather History for KOQN - November, 2019

Change the Weather History Date:

Monday, November 18, 2019

  Actual Average (WUND) Record (WUND)
Temperature  
Mean Temperature 38 °F -  
Max Temperature 42 °F - - (-1)
Min Temperature 33 °F - - (-1)
Degree Days  
Heating Degree Days 28    
Moisture  
Dew Point 34 °F    
Average Humidity 83    
Maximum Humidity 93    
Minimum Humidity 76    
Precipitation  
Precipitation 0.00 in - - ()
Sea Level Pressure  
Sea Level Pressure 29.81 in    
Wind  
Wind Speed 5 mph (NNE)    
Max Wind Speed 10 mph    
Max Gust Speed 17 mph    
Visibility 10 miles    
Events      
Averages and records for this station are not official NWS values.
T = Trace of Precipitation, MM = Missing Value Source: NWS Daily Summary

Daily Weather History Graph

Daily Weather History Graph

Search for Another Location

Airport or City:

Astronomy

Nov. 18, 2019 Rise Set
Actual Time 6:50 AM EST 4:43 PM EST
Civil Twilight 6:21 AM EST 5:13 PM EST
Nautical Twilight 5:48 AM EST 5:45 PM EST
Astronomical Twilight 5:16 AM EST 6:18 PM EST
Moon 10:26 PM EST (11/18) 12:20 PM EST (11/18)
Length of Visible Light 10h 51m
Length of Day
9h 53m
Waning Gibbous, 63% of the Moon is Illuminated
Nov 18
Waning Gibbous
Nov 19
Last Quarter
Nov 26
New
Dec 4
First Quarter
Dec 12
Full

Hourly Weather History & Observations

Time (EST) Temp. Windchill Dew Point Humidity Pressure Visibility Wind Dir Wind Speed Gust Speed Precip Events Conditions
12:15 AM 37.4 °F 32.1 °F 32.0 °F 81% 29.99 in 10.0 mi NE 6.9 mph - N/A   Unknown
12:35 AM 37.4 °F 31.4 °F 32.0 °F 81% 29.99 in 10.0 mi NNE 8.1 mph - N/A   Unknown
12:55 AM 37.4 °F 31.4 °F 32.0 °F 81% 29.98 in 10.0 mi NE 8.1 mph - N/A   Unknown
1:15 AM 37.4 °F 30.3 °F 32.0 °F 81% 29.97 in 10.0 mi NE 10.4 mph 17.3 mph N/A   Unknown
1:55 AM 37.4 °F 32.1 °F 32.0 °F 81% 29.95 in 10.0 mi NE 6.9 mph - N/A   Unknown
2:15 AM 37.4 °F 32.1 °F 32.0 °F 81% 29.94 in 10.0 mi NE 6.9 mph - N/A   Unknown
2:35 AM 35.6 °F 31.7 °F 30.2 °F 81% 29.93 in 10.0 mi NNE 4.6 mph - N/A   Unknown
2:55 AM 35.6 °F 30.7 °F 30.2 °F 81% 29.92 in 10.0 mi North 5.8 mph - N/A   Unknown
3:35 AM 35.6 °F 29.9 °F 32.0 °F 87% 29.91 in 10.0 mi North 6.9 mph - N/A   Unknown
3:55 AM 35.6 °F 31.7 °F 32.0 °F 87% 29.90 in 10.0 mi North 4.6 mph - N/A   Unknown
4:15 AM 35.6 °F 29.9 °F 32.0 °F 87% 29.90 in 10.0 mi NNE 6.9 mph - N/A   Unknown
4:35 AM 33.8 °F 28.6 °F 32.0 °F 93% 29.91 in 10.0 mi NNE 5.8 mph - N/A   Unknown
4:55 AM 33.8 °F 27.7 °F 32.0 °F 93% 29.90 in 10.0 mi NNE 6.9 mph - N/A   Unknown
5:15 AM 35.6 °F 31.7 °F 32.0 °F 87% 29.90 in 10.0 mi NNE 4.6 mph - N/A   Unknown
5:35 AM 35.6 °F 31.7 °F 32.0 °F 87% 29.89 in 10.0 mi NNE 4.6 mph - N/A   Unknown
5:55 AM 35.6 °F 29.2 °F 32.0 °F 87% 29.89 in 10.0 mi North 8.1 mph - N/A   Unknown
6:15 AM 35.6 °F 29.2 °F 32.0 °F 87% 29.89 in 10.0 mi North 8.1 mph - N/A   Unknown
6:35 AM 35.6 °F 30.7 °F 32.0 °F 87% 29.89 in 10.0 mi NNE 5.8 mph - N/A   Unknown
6:55 AM 35.6 °F 30.7 °F 32.0 °F 87% 29.89 in 10.0 mi North 5.8 mph - N/A   Unknown
7:15 AM 35.6 °F 29.9 °F 32.0 °F 87% 29.89 in 10.0 mi North 6.9 mph - N/A   Unknown
7:35 AM 35.6 °F 29.2 °F 32.0 °F 87% 29.89 in 10.0 mi North 8.1 mph - N/A   Unknown
8:15 AM 35.6 °F 31.7 °F 32.0 °F 87% 29.89 in 10.0 mi North 4.6 mph - N/A   Unknown
8:35 AM 37.4 °F 31.4 °F 32.0 °F 81% 29.88 in 10.0 mi NNE 8.1 mph - N/A   Unknown
8:55 AM 37.4 °F 32.8 °F 32.0 °F 81% 29.87 in 10.0 mi NNE 5.8 mph - N/A   Unknown
9:15 AM 37.4 °F 32.1 °F 32.0 °F 81% 29.87 in 10.0 mi North 6.9 mph - N/A   Unknown
9:35 AM 37.4 °F 33.8 °F 33.8 °F 87% 29.86 in 10.0 mi North 4.6 mph - N/A   Unknown
9:55 AM 39.2 °F 35.9 °F 33.8 °F 81% 29.86 in 10.0 mi North 4.6 mph - N/A   Unknown
10:15 AM 39.2 °F 35.0 °F 33.8 °F 81% 29.85 in 10.0 mi NNW 5.8 mph - N/A   Unknown
10:35 AM 41.0 °F 36.4 °F 33.8 °F 76% 29.84 in 10.0 mi North 6.9 mph - N/A   Unknown
11:15 AM 41.0 °F 37.1 °F 33.8 °F 76% 29.82 in 10.0 mi NNW 5.8 mph - N/A   Unknown
11:35 AM 41.0 °F 38.0 °F 33.8 °F 76% 29.81 in 10.0 mi North 4.6 mph - N/A   Unknown
11:55 AM 41.0 °F 35.8 °F 33.8 °F 76% 29.80 in 10.0 mi North 8.1 mph - N/A   Unknown
12:15 PM 41.0 °F 38.0 °F 33.8 °F 76% 29.80 in 10.0 mi NNW 4.6 mph - N/A   Unknown
12:35 PM 41.0 °F 38.0 °F 33.8 °F 76% 29.79 in 10.0 mi North 4.6 mph - N/A   Unknown
12:55 PM 41.0 °F 35.8 °F 35.6 °F 81% 29.77 in 10.0 mi North 8.1 mph - N/A   Unknown
1:35 PM 42.8 °F 39.3 °F 35.6 °F 76% 29.76 in 10.0 mi NE 5.8 mph - N/A   Unknown
1:55 PM 42.8 °F 39.3 °F 35.6 °F 76% 29.75 in 10.0 mi NNE 5.8 mph - N/A   Unknown
2:15 PM 42.8 °F 40.1 °F 35.6 °F 76% 29.74 in 10.0 mi NNW 4.6 mph - N/A   Unknown
2:35 PM 42.8 °F 38.6 °F 35.6 °F 76% 29.74 in 10.0 mi North 6.9 mph - N/A   Unknown
2:55 PM 42.8 °F 38.6 °F 35.6 °F 76% 29.74 in 10.0 mi NNW 6.9 mph - N/A   Unknown
3:15 PM 42.8 °F 40.1 °F 35.6 °F 76% 29.74 in 10.0 mi North 4.6 mph - N/A   Unknown
3:35 PM 42.8 °F 40.1 °F 35.6 °F 76% 29.73 in 10.0 mi North 4.6 mph - N/A   Unknown
3:55 PM 42.8 °F 40.1 °F 35.6 °F 76% 29.73 in 10.0 mi North 4.6 mph - N/A   Unknown
4:15 PM 42.8 °F 41.1 °F 35.6 °F 76% 29.73 in 10.0 mi NE 3.5 mph - N/A   Unknown
4:35 PM 42.8 °F 40.1 °F 35.6 °F 76% 29.73 in 10.0 mi North 4.6 mph - N/A   Unknown
4:55 PM 42.8 °F 41.1 °F 35.6 °F 76% 29.73 in 10.0 mi NE 3.5 mph - N/A   Unknown
5:15 PM 41.0 °F 39.0 °F 35.6 °F 81% 29.72 in 10.0 mi NE 3.5 mph - N/A   Unknown
5:35 PM 41.0 °F - 35.6 °F 81% 29.73 in 10.0 mi Calm Calm - N/A   Unknown
5:55 PM 41.0 °F - 35.6 °F 81% 29.74 in 10.0 mi Calm Calm - N/A   Unknown
6:15 PM 41.0 °F - 35.6 °F 81% 29.75 in 10.0 mi Calm Calm - N/A   Unknown
6:35 PM 41.0 °F - 35.6 °F 81% 29.75 in 10.0 mi Calm Calm - N/A   Unknown
6:55 PM 41.0 °F - 35.6 °F 81% 29.74 in 10.0 mi Calm Calm - N/A   Unknown
7:15 PM 41.0 °F - 35.6 °F 81% 29.74 in 10.0 mi Calm Calm - N/A   Unknown
7:35 PM 41.0 °F - 35.6 °F 81% 29.75 in 10.0 mi Calm Calm - N/A   Unknown
7:55 PM 41.0 °F - 35.6 °F 81% 29.74 in 10.0 mi Calm Calm - N/A   Unknown
8:15 PM 39.2 °F - 35.6 °F 87% 29.75 in 10.0 mi Calm Calm - N/A   Unknown
8:35 PM 39.2 °F - 35.6 °F 87% 29.75 in 10.0 mi Calm Calm - N/A   Unknown
8:55 PM 39.2 °F - 35.6 °F 87% 29.74 in 10.0 mi Calm Calm - N/A   Unknown
9:15 PM 37.4 °F 33.8 °F 35.6 °F 93% 29.72 in 10.0 mi NNW 4.6 mph - N/A   Unknown
9:35 PM 39.2 °F - 35.6 °F 87% 29.72 in 10.0 mi Calm Calm - N/A   Unknown
9:55 PM 39.2 °F - 35.6 °F 87% 29.72 in 10.0 mi Calm Calm - N/A   Unknown
10:15 PM 39.2 °F - 35.6 °F 87% 29.73 in 10.0 mi Calm Calm - N/A   Unknown
10:35 PM 39.2 °F - 35.6 °F 87% 29.72 in 10.0 mi Calm Calm - N/A   Unknown
10:55 PM 39.2 °F - 35.6 °F 87% 29.72 in 10.0 mi Calm Calm - N/A   Unknown
11:15 PM 37.4 °F - 35.6 °F 93% 29.72 in 10.0 mi Calm Calm - N/A   Unknown
11:35 PM 37.4 °F - 35.6 °F 93% 29.72 in 10.0 mi Calm Calm - N/A   Unknown
11:55 PM 37.4 °F - 35.6 °F 93% 29.73 in 7.0 mi Calm Calm - N/A   Unknown